Location: Calberlah
(52.4230°N, 10.6240°E)
Time: 00:35:21
(UTC+00:00)

SL-16 R/B - Pass Details

Date: 19 May 2025
Orbit: 841 x 844 km, 71.0° (Epoch: 23 June)

Event Time Altitude Azimuth Distance (km) Brightness Sun altitude
Rises 20:56:15 0° 329° (NNW) 3,415 7.6 -11.7°
Reaches altitude 10° 20:58:56 10° 339° (NNW) 2,477 6.1 -11.9°
Maximum altitude 21:04:06 34° 44° (NE) 1,355 3.4 -12.3°
Drops below altitude 10° 21:09:14 10° 109° (ESE) 2,467 4.2 -12.7°
Enters shadow 21:09:28 - 110° (ESE) 2,545 4.2 -12.7°
